COSMOS 1275 DEB

Satellite information

Favourite Embed

Satellite Type and Status

DEBRISIN ORBIT

Key statistics

Satellite COSMOS 1275 DEB at a glance.

Uptime

16210

Days in orbit

Revolutions

≈ 13.9

Per day

Orbit

LEO

Low Earth Orbit

Inclination

82.9

Latest

Satellite identification and parameters

Extended collection of information and parameters for COSMOS 1275 DEB.

Object identification

Identified? True

Debris? True

Object name: COSMOS 1275 DEB

International designator: 1981-053SV

Object number (NORAD): 42181

Object ID (CCSDS): 42181

Country: COMMONWEALTH OF INDEPENDENT STATES (CIS)

Current information (Y/N): Y

RCS size: SMALL

Orbital parameters

Period: 103.334 minutes

Inclination: 82.9002 deg

SMA: 7294.368 km

Apoapsis: 972.874 km

Periapsis: 859.592 km

RAAN: 258.7516 deg

Eccentricy: 0.00776498

Argument of periapsis: 85.883 deg

Mean anomaly: 275.1206 deg

Mean motion: 13.93545844 rev/day

Mean motion (dot): 0.00001086 rev/day2

B* drag term: 0.00079606782 1/REarth

Two-line elements (TLE)

Creation date: Oct. 16, 2025, 6:34 p.m.

Reference frame: TEME

Reference center: EARTH

Epoch: Oct. 16, 2025, 4:12 a.m. UTC

TLE line 0: 0 COSMOS 1275 DEB

TLE line 1: 1 42181U 81053SV 25289.17518637 .00001086 00000-0 79607-3 0 9994

TLE line 2: 2 42181 82.9002 258.7516 0077650 85.8830 275.1206 13.93545844 44940

Live tracking on map

Real-time ground track for satellite COSMOS 1275 DEB.

In-orbit conjunctions

A list of the most updated potential collisions computed for object COSMOS 1275 DEB.

Target Orbit TCA Probability of collision Miss distance Type
SL-3 R/B SSO 2025-07-12 19:56:07 0.001725793 32.0 (m) ROCKET BODY
CZ-6A DEB SSO 2025-05-29 22:52:00 0.0001481843 184.0 (m) DEBRIS
FENGYUN 1C DEB SSO 2024-11-11 15:55:13 0.0002945181 268.0 (m) DEBRIS

Associated space launch

Navigation satellite providing location information for the Tsiklon-B navigation system

COSMOS 1275 DEB was lifted into orbit during the mission ‘Kosmos-3M | Parus 27’, on board a Kosmos-3M space rocket.

The launch took place on June 4, 1981, 3:41 p.m. from 132/2.

For more information about the launch, click the button.

Launch to space Kosmos-3M | Parus 27
Kosmos-3M | Parus 27

Agency: N/A

Status: Launch Successful

Launch date: June 4, 1981, 3:41 p.m. UTC

Rocket: Kosmos-3M

Launch pad: 132/2

Location: Plesetsk Cosmodrome, Russian Federation

...

Latest news about this satellite

There are no fresh news available about this satellite. Check back as we update our databases every day.


Newsletter sign-up

Weekly statistics, charts and insights to help you stay on top of the space industry.